Weather History for KANK - March, 2013

Change the Weather History Date:

Friday, March 29, 2013

  Actual Average (KGUC) Record (KGUC)
Temperature  
Mean Temperature 46 °F -  
Max Temperature 62 °F 47 °F 64 °F (2015)
Min Temperature 30 °F 20 °F 8 °F (2003)
Degree Days  
Heating Degree Days 19    
Moisture  
Dew Point 21 °F    
Average Humidity 43    
Maximum Humidity 73    
Minimum Humidity 14    
Precipitation  
Precipitation 0.00 in - - ()
Sea Level Pressure  
Sea Level Pressure 30.28 in    
Wind  
Wind Speed 5 mph (WNW)    
Max Wind Speed 21 mph    
Max Gust Speed 30 mph    
Visibility 10 miles    
Events      
Averages and records for this station are not official NWS values.
T = Trace of Precipitation, MM = Missing Value Source: NWS Daily Summary

Daily Weather History Graph

Daily Weather History Graph

Search for Another Location

Airport or City:

Trip Planner

Search our weather history database for the weather conditions in past years. The results will help you decide how hot, cold, wet, or windy it might be!

Date:

Astronomy

Mar. 29, 2013 Rise Set
Actual Time 6:53 AM MDT 7:25 PM MDT
Civil Twilight 6:26 AM MDT 7:51 PM MDT
Nautical Twilight 5:55 AM MDT 8:23 PM MDT
Astronomical Twilight 5:23 AM MDT 8:55 PM MDT
Moon 10:25 PM MDT (3/29) 8:06 AM MDT (3/29)
Length of Visible Light 13h 25m
Length of Day
12h 31m
Waning Gibbous, 93% of the Moon is Illuminated
Mar 29
Waning Gibbous
Apr 2
Last Quarter
Apr 10
New
Apr 18
First Quarter
Apr 25
Full

Hourly Weather History & Observations

Time (MDT) Temp. Windchill Dew Point Humidity Pressure Visibility Wind Dir Wind Speed Gust Speed Precip Events Conditions
12:15 AM 37.8 °F 33.3 °F 21.7 °F 53% 30.29 in 10.0 mi West 5.8 mph - N/A   Clear
12:35 AM 37.6 °F 33.1 °F 21.2 °F 52% 30.29 in 10.0 mi West 5.8 mph - N/A   Clear
12:55 AM 37.4 °F 33.8 °F 21.7 °F 53% 30.29 in 10.0 mi West 4.6 mph - N/A   Clear
1:15 AM 36.3 °F - 23.0 °F 59% 30.29 in 10.0 mi Calm Calm - N/A   Clear
1:35 AM 36.1 °F - 23.0 °F 59% 30.29 in 10.0 mi Calm Calm - N/A   Clear
1:55 AM 34.2 °F 30.0 °F 22.5 °F 62% 30.29 in 10.0 mi West 4.6 mph - N/A   Clear
2:15 AM 34.2 °F 31.2 °F 23.0 °F 64% 30.29 in 10.0 mi NNW 3.5 mph - N/A   Clear
2:35 AM 33.8 °F 29.6 °F 23.2 °F 65% 30.29 in 10.0 mi WNW 4.6 mph - N/A   Clear
2:55 AM 35.1 °F 32.2 °F 23.5 °F 63% 30.29 in 10.0 mi West 3.5 mph - N/A   Clear
3:15 AM 34.5 °F 31.6 °F 23.7 °F 65% 30.29 in 10.0 mi West 3.5 mph - N/A   Clear
3:35 AM 32.9 °F - 23.0 °F 67% 30.29 in 10.0 mi Calm Calm - N/A   Clear
3:55 AM 33.1 °F 30.0 °F 23.4 °F 67% 30.29 in 10.0 mi WNW 3.5 mph - N/A   Clear
4:15 AM 32.9 °F - 23.4 °F 68% 30.29 in 10.0 mi Calm Calm - N/A   Clear
4:35 AM 31.8 °F - 23.0 °F 70% 30.29 in 10.0 mi Calm Calm - N/A   Clear
4:55 AM 32.0 °F - 23.4 °F 70% 30.29 in 10.0 mi Calm Calm - N/A   Clear
5:15 AM 32.0 °F - 23.5 °F 71% 30.29 in 10.0 mi Calm Calm - N/A   Clear
5:35 AM 32.0 °F - 23.4 °F 70% 30.29 in 10.0 mi Calm Calm - N/A   Clear
5:55 AM 31.8 °F - 23.2 °F 70% 30.30 in 10.0 mi Calm Calm - N/A   Clear
6:15 AM 31.6 °F - 23.2 °F 71% 30.31 in 10.0 mi Calm Calm - N/A   Clear
6:35 AM 30.7 °F - 23.0 °F 73% 30.31 in 10.0 mi Calm Calm - N/A   Clear
6:55 AM 31.1 °F 27.7 °F 23.0 °F 72% 30.31 in 10.0 mi WSW 3.5 mph - N/A   Clear
7:15 AM 32.0 °F - 23.5 °F 71% 30.32 in 10.0 mi Calm Calm - N/A   Clear
7:35 AM 32.0 °F 28.7 °F 23.7 °F 71% 30.33 in 10.0 mi WNW 3.5 mph - N/A   Clear
7:55 AM 32.9 °F 28.5 °F 23.9 °F 69% 30.34 in 10.0 mi NNW 4.6 mph - N/A   Clear
8:15 AM 35.2 °F - 24.4 °F 65% 30.33 in 10.0 mi Calm Calm - N/A   Clear
8:35 AM 37.4 °F 34.9 °F 25.2 °F 61% 30.33 in 10.0 mi North 3.5 mph - N/A   Clear
8:55 AM 39.4 °F 36.1 °F 24.8 °F 56% 30.32 in 10.0 mi West 4.6 mph - N/A   Clear
9:15 AM 43.3 °F 40.7 °F 25.3 °F 49% 30.32 in 10.0 mi North 4.6 mph - N/A   Clear
9:35 AM 45.5 °F - 24.8 °F 44% 30.32 in 10.0 mi Calm Calm - N/A   Clear
9:55 AM 48.2 °F - 26.1 °F 42% 30.31 in 10.0 mi Calm Calm - N/A   Clear
10:15 AM 49.3 °F - 25.0 °F 39% 30.30 in 10.0 mi Calm Calm - N/A   Clear
10:35 AM 52.7 °F - 22.5 °F 31% 30.30 in 10.0 mi NNE 5.8 mph - N/A   Clear
10:55 AM 54.1 °F - 22.6 °F 29% 30.30 in 10.0 mi NNW 4.6 mph - N/A   Clear
11:15 AM 55.4 °F - 21.0 °F 26% 30.30 in 10.0 mi North 5.8 mph - N/A   Scattered Clouds
11:35 AM 55.2 °F - 20.7 °F 26% 30.29 in 10.0 mi North 5.8 mph - N/A   Scattered Clouds
11:55 AM 56.3 °F - 20.5 °F 25% 30.29 in 10.0 mi North 4.6 mph - N/A   Scattered Clouds
12:15 PM 55.8 °F - 20.7 °F 26% 30.29 in 10.0 mi Calm Calm - N/A   Mostly Cloudy
12:35 PM 57.2 °F - 20.1 °F 24% 30.27 in 10.0 mi North 4.6 mph - N/A   Mostly Cloudy
12:55 PM 56.3 °F - 19.4 °F 24% 30.27 in 10.0 mi East 3.5 mph - N/A   Scattered Clouds
1:15 PM 57.4 °F - 19.4 °F 23% 30.25 in 10.0 mi North 8.1 mph - N/A   Mostly Cloudy
1:35 PM 59.9 °F - 17.2 °F 19% 30.25 in 10.0 mi WNW 10.4 mph - N/A   Scattered Clouds
1:55 PM 60.1 °F - 15.1 °F 17% 30.24 in 10.0 mi WNW 6.9 mph - N/A   Clear
2:15 PM 60.4 °F - 16.0 °F 18% 30.23 in 10.0 mi WSW 9.2 mph 21.9 mph N/A   Scattered Clouds
2:35 PM 62.1 °F - 15.8 °F 17% 30.22 in 10.0 mi WSW 11.5 mph 20.7 mph N/A   Mostly Cloudy
2:55 PM 62.8 °F - 15.6 °F 16% 30.22 in 10.0 mi West 18.4 mph 23.0 mph N/A   Overcast
3:15 PM 59.9 °F - 16.9 °F 19% 30.23 in 10.0 mi West 11.5 mph 25.3 mph N/A   Mostly Cloudy
3:35 PM 60.3 °F - 19.0 °F 20% 30.23 in 10.0 mi WNW 17.3 mph 29.9 mph N/A   Mostly Cloudy
3:55 PM 58.1 °F - 17.6 °F 21% 30.23 in 10.0 mi West 20.7 mph 29.9 mph N/A   Scattered Clouds
4:15 PM 61.3 °F - 16.0 °F 17% 30.23 in 10.0 mi West 16.1 mph 27.6 mph N/A   Scattered Clouds
4:35 PM 60.8 °F - 12.9 °F 15% 30.23 in 10.0 mi West 13.8 mph 21.9 mph N/A   Scattered Clouds
4:55 PM 59.9 °F - 10.8 °F 14% 30.22 in 10.0 mi WNW 12.7 mph 20.7 mph N/A   Scattered Clouds
5:15 PM 61.5 °F - 11.5 °F 14% 30.22 in 10.0 mi West 10.4 mph 19.6 mph N/A   Scattered Clouds
5:35 PM 61.3 °F - 13.5 °F 15% 30.22 in 10.0 mi WNW 16.1 mph - N/A   Scattered Clouds
5:55 PM 60.6 °F - 14.2 °F 16% 30.23 in 10.0 mi West 12.7 mph - N/A   Clear
6:15 PM 58.6 °F - 13.8 °F 17% 30.23 in 10.0 mi NW 8.1 mph 17.3 mph N/A   Clear
6:35 PM 59.0 °F - 13.5 °F 17% 30.24 in 10.0 mi WNW 11.5 mph - N/A   Mostly Cloudy
6:55 PM 58.1 °F - 14.4 °F 18% 30.24 in 10.0 mi WNW 5.8 mph - N/A   Mostly Cloudy
7:15 PM 56.3 °F - 14.5 °F 19% 30.25 in 10.0 mi WNW 4.6 mph - N/A   Scattered Clouds
7:35 PM 52.7 °F - 23.0 °F 31% 30.26 in 10.0 mi NW 10.4 mph 20.7 mph N/A   Mostly Cloudy
7:55 PM 51.6 °F - 24.3 °F 34% 30.26 in 10.0 mi North 15.0 mph 19.6 mph N/A   Mostly Cloudy
8:15 PM 50.0 °F - 25.5 °F 39% 30.27 in 10.0 mi NNW 10.4 mph - N/A   Clear
8:35 PM 49.1 °F - 25.5 °F 40% 30.28 in 10.0 mi NW 8.1 mph - N/A   Clear
8:55 PM 48.6 °F - 25.0 °F 40% 30.29 in 10.0 mi NNW 12.7 mph - N/A   Clear
9:15 PM 47.8 °F - 24.6 °F 40% 30.29 in 10.0 mi NW 4.6 mph - N/A   Clear
9:35 PM 43.9 °F 41.3 °F 23.0 °F 44% 30.29 in 10.0 mi NW 4.6 mph - N/A   Clear
9:55 PM 43.2 °F 38.4 °F 23.4 °F 46% 30.30 in 10.0 mi West 8.1 mph - N/A   Clear
10:15 PM 43.3 °F 39.2 °F 23.0 °F 45% 30.31 in 10.0 mi WSW 6.9 mph - N/A   Clear
10:35 PM 41.9 °F 37.5 °F 22.5 °F 46% 30.32 in 10.0 mi WSW 6.9 mph - N/A   Clear
10:55 PM 39.7 °F 33.7 °F 22.5 °F 50% 30.33 in 10.0 mi West 9.2 mph - N/A   Clear
11:15 PM 39.7 °F 33.7 °F 22.6 °F 50% 30.33 in 10.0 mi West 9.2 mph - N/A   Clear
11:55 PM 40.1 °F 35.3 °F 23.0 °F 51% 30.32 in 10.0 mi West 6.9 mph - N/A   Scattered Clouds